Погода в Архангельске

Погода в Архангельске : погода сейчас, прогноз погоды и архив. Всё, что Вы хотите узнать о погоде в Архангельске!

Хотите узнать прогноз погоды в Архангельске? Тогда Вам сюда: Погода в Архангельске

Поиск расширенной информации на нашем сайте:

Другие новости

Новости СМИ2

Главная страница сайта

Новости сайта

03.07.2017

Напоминаем, что на нашем специализированном сайте Метеоцентр.Азия вы можете получить высокодетализированные автоматические прогнозы погоды по пунктам России, СНГ и мира в авиационном формате (включающие направление и скорость ветра, видимость, явления погоды, количество и форму облачности, нижнюю и верхнюю границу облачности).


Погода в Архангельске - сегодня

Время (UTC), дата Ветер
(°,м/с) 
Видим.   Явления Облачность Т
(°С)
Тd
(°С)
f(%) Тe
(°С)
Pmin
(гПа)
dP
(гПа)
Po
(мм)
O2
(г/м3)
Тmin Tmax R s Состояние
почвы
00 19.09.17 070 (В) 4{10}  24000 м    3/0 средняя 
[Ac trans]
+4.3 +3.6 95 +3  1011  -0.9  758  300           
03 19.09.17 080 (В) 10 км    9/0 средняя 
[Ac As]
+4.2 +1.9 85 +2  1010.3  -0.7  757  300  +4.1         
06 19.09.17 060 (СВ) 5-10{10}  10 км    10/0 средняя 
[Ac und]
+4.6 +1.4 80 +2  1009.2  -1.1  756  299           
09 19.09.17 070 (В) 5-11{14}  10 км    10/0 средняя 
[Ac und]
+6.3 +1.9 73 +4  1008.6  -0.6  756  297           
12 19.09.17 060 (СВ) 6-10{17}  10 км    10/0 средняя 
[Ac und]
+6.8 +2.6 75 +5  1008.8  0.2  756  297           
15 19.09.17 050 (СВ) 2{13}  10 км  слаб. дождь  10/0 средняя 
[Ac As]
+5.7 +4.5 92 +5  1010.6  1.8  757  298    +7.1  0.6     
18 19.09.17 040 (СВ) 15000 м  в посл. час дождь  10/0 средняя 
[Ac und]
+5.6 +3.4 86 +4  1011.8  1.2  758  299           
21 19.09.17 040 (СВ) 3{11}  20000 м    10/10 630 м 
[Sc]
+5.6 +2.5 80 +5  1013.2  1.2  759  299           
00 20.09.17 040 (СВ) 23000 м    10/10 1170 м 
[Sc]
+5.3 +2.8 84 +4  1015.1  1.9  761  300           
03 20.09.17 030 (СВ) 10 км    10/10 900 м 
[Sc]
+5.1 +2.6 84 +4  1017.5  2.4  762  301  +5    0.3     
06 20.09.17 040 (СВ) 10 км    10/10 480 м 
[Sc]
+5.6 +2.7 82 +5  1020.5  2.9  765  302           
09 20.09.17 040 (СВ) 10 км    8/5 600 м верхняя 
[Sc|Ci fib]
+8.2 +3.6 73 +8  1022.3  1.8  766  299           
12 20.09.17 060 (СВ) 10 км    8/8 800 м 
[Sc]
+11.8 +3.9 58 +12  1024.4  2.1  768  296           
15 20.09.17 050 (СВ) 10 км    3/3 600 м 
[Sc]
+8 +2.5 68 +8  1026.3  1.9  769  301    +11.8       
18 20.09.17 040 (СВ) 20000 м    ясно 
+0.6 +0.3 98 1028.9  2.6  771  310           
21 20.09.17 050 (СВ) 18000 м    ясно 
+2.5 +1.8 95 +2  1031.1  2.2  773  308           
00 21.09.17 030 (СВ) 21000 м    ясно 
-0.8 -1 99 1033.2  2.1  774  313           
03 21.09.17 080 (В) 10 км    ясно 
-0 -0.3 98 +1  1035.4  2.2  776  313  -1.4         
06 21.09.17 090 (В) 10 км    10/10 1200 м 
[Sc]
+3.1 +2.7 97 +4  1037.4  1.9  777  309           
09 21.09.17 020 (С) 10 км    ясно 
+8.5 +3.5 71 +9  1038  0.7  778  303           
12 21.09.17 050 (СВ) 10 км    9/9 930 м 
[Sc]
+10.5 +3.4 61 +11  1038.6  0.7  778  301           
15 21.09.17 тихо ()   10 км    4/4 1000 м 
[Sc]
+5.7 +4.1 89 +6  1039.1  0.5  779  307    +10.6       
18 21.09.17 120 (ЮВ) 25000 м    ясно 
+3.5 +3.3 99 +3  1040.1  779  310           
21 21.09.17 110 (В) 28000 м    ясно 
+1.8 +1.6 99 +3  1040.7  0.6  780  312           
00 22.09.17 150 (ЮВ) 20000 м    ясно 
-0.3 -0.4 99 1041.7  781  315           
Время (UTC), дата Ветер
(°,м/с) 
Видим.   Явления Облачность Т
(°С)
Тd
(°С)
f(%) Тe
(°С)
Pmin
(гПа)
dP
(гПа)
Po
(мм)
O2
(г/м3)
Тmin Tmax R s Состояние
почвы

Для получения пояснительной информации подведите курсор к названию столбца.

ПОГОДА в Архангельске - архив

Всё, что Вы хотите узнать о погоде в Архангельске - удобно и подробно!

Выберите нужную дату (начиная с 1 января 2015* года) и нажмите кнопку "Найти".
Будут отображены архивные сводки погоды по пункту Архангельск, начиная с указанной даты.


Отображать данные в формате CSV (для использования в таблицах Excel)


Внимание! Наш архив погоды предназначен исключительно для личного некоммерческого использования в познавательных целях. Если Вам необходимы официальные справки о состоянии погоды (для производственных, юридических, коммерческих и т.п. целей), обращайтесь в органы Росгидромета.

*Примечание: данная дата относится к архиву по метеостанциям СССР (Россия, СНГ, Балтия).
Архив по метеостанциям Зарубежной Европы и Азии (кроме Китая) хранится 10 дней, по другим регионам земного шара (Китай, Африка, Америка, Австралия, Океания) - 1 день.

Архангельск - район местоположения метеостанции


Название, широта, долгота, высота метеостанции:
Архангельск (город) 64.5°ш. 40.7°д. 8 м над ур. моря [Российская Федерация]

Дополнительная информация

В oтличие oт бoльшинства пoгoдных сайтoв мы публикуем пoдрoбную метеoинфoрмацию в детальнoм прoфессиoнальнoм фoрмате.

Характеристики температуры и влажнoсти вoздуха измеряются на высoте 2 м в тени вдали oт зданий и деревьев.
Скoрoсть ветра измеряется на высoте 10 м (на урoвне рoста челoвека скoрoсть ветра ниже в 1.5-2 раза). Если метеoстанция нахoдится в гoрoде или в лесу, тo скoрoсть ветра занижена на 2-4 м/с пo сравнению с oткрытым местoм. Скoрoсть ветра над акватoриями крупных рек и oзёр, а также на вершинах хoлмoв на 2-5 м/с выше, чем в oбычных услoвиях.
Атмoсфернoе давление в разных тoчках местнoсти мoжет значительнo oтличаться oт давления на метеoстанции, в зависимoсти oт услoвий рельефа (при пoдъёме на 10 м давление пoнижается примернo на 1 мм рт.ст.).